Regional Weather Roundup
Issued by NWS

Home | Current Version | Previous Version | Text Only | Print | Product List | Glossary On
Versions: 1 2 3 4 5 6 7 8 9 10 11 12 13 14 15 16 17 18 19 20 21 22 23 24 25 26 27 28 29 30 31 32 33 34 35 36 37 38 39 40 41 42 43 44 45 46 47 48 49 50
000
ASUS44 KEWX 300303
RWRTX
SOUTH TEXAS REGIONAL WEATHER ROUNDUP
NATIONAL WEATHER SERVICE AUSTIN/SAN ANTONIO TX
1000 PM CDT MON MAY 29 2017

NOTE: "FAIR" INDICATED FEW OR NO CLOUDS BELOW 12,000 FEET WITH NO
SIGNIFICANT WEATHER AND/OR OBSTRUCTIONS TO VISIBILITY.

* - THESE STATIONS ARE NOT NWS OR FAA STATIONS...AND ARE NOT SUBJECT
    TO NWS AND FAA QUALITY CONTROL.

TXZ171-172-183>190-300400-
TEXAS HILL COUNTRY AND EDWARDS PLATEAU

CITY           SKY/WX    TMP DP  RH WIND       PRES   REMARKS
JUNCTION       CLOUDY    74  64  71 E5        30.04R
*LLANO         CLOUDY    73  68  83 CALM      30.05R
BURNET         CLOUDY    74  66  76 CALM      30.05R
*HORSESHOE BAY NOT AVBL
*KERRVILLE     MOCLDY    72  66  81 CALM      30.05R
*FREDERICKSBRG CLOUDY    73  64  71 CALM      30.04R
*ROCKSPRINGS     N/A    N/A N/A N/A MISG        N/A
*BOERNE STAGE  CLOUDY    73  63  68 SE6       30.04R
*CASTROVILLE   CLOUDY    78  63  60 SE6       30.02R
HONDO          MOCLDY    80  65  59 SE10      30.00R
*UVALDE        MOCLDY    75  71  89 CALM      29.99S
DEL RIO        MOCLDY    80  69  69 E7        29.97R
LAUGHLIN AFB   CLOUDY    78  72  82 SE5       29.98R
CARRIZO SPRGS  MOCLDY    79  68  69 E7G16     29.96R
*EAGLE PASS    NOT AVBL
$$

TXZ173-191>194-202-209-217>225-228-300400-
CENTRAL AND SOUTH CENTRAL TEXAS

CITY           SKY/WX    TMP DP  RH WIND       PRES   REMARKS
GEORGETOWN     CLEAR     75  64  69 CALM      30.01R
AUSTIN/BERGSTM CLOUDY    77  68  73 CALM      30.00R
AUSTIN/MABRY   PTCLDY    79  67  66 CALM      30.01R
*AUSTIN/EXEC   PTCLDY    75  70  83 CALM      30.01R
*LAGO VISTA    CLOUDY    73  67  82 E6        30.03R
SAN MARCOS       N/A    N/A N/A N/A MISG        N/A
NEW BRAUNFELS  CLOUDY    76  68  76 SE3       29.99R
RANDOLPH AFB   CLOUDY    75  69  83 SE5       30.01R
PT SAN ANTONIO CLOUDY    80  68  68 E9        29.99R
SAN ANTONIO    CLOUDY    77  66  68 E5        30.01R
STINSON FIELD  CLOUDY    79  68  69 SE6       29.98R
*LA GRANGE     PTCLDY    75  70  84 CALM      29.98R
*GIDDINGS      CLEAR     75  66  73 CALM      30.00R
*GONZALES      CLEAR     76  70  82 CALM      29.99R
$$

TXZ163>164-176>182-195>201-210>213-226-227-235-300400-
SOUTHEAST TEXAS

CITY           SKY/WX    TMP DP  RH WIND       PRES   REMARKS
COLLEGE STN    PTCLDY    76  69  79 E6        30.00R
*BRYAN         CLOUDY    76  69  80 CALM      30.02R HAZE
*CALDWELL      NOT AVBL
*CROCKETT        N/A    N/A N/A N/A MISG        N/A
*BRENHAM       CLEAR     75  69  80 CALM      30.01R
HUNTSVILLE     CLEAR     73  69  87 CALM      30.00R
CONROE         CLEAR     72  70  93 CALM      30.00R
HOUSTON BUSH   PTCLDY    74  69  85 SE9       29.99R
HOUSTON HOBBY  MOCLDY    75  69  81 E5        29.98R
*HOUSTON SW AP CLEAR     73  69  87 CALM      29.99S
PEARLAND       CLEAR     76  70  82 CALM      29.99R
HOUSTON HOOKS  CLEAR     76  70  82 E6        29.99R
ELLINGTON FLD  MOCLDY    75  70  83 CALM      30.00R
SUGAR LAND     CLEAR     78  71  79 E6        29.98R
*HOUSTON EXEC  CLEAR     73  68  83 E6        30.00R
*CLEVELAND MUN CLEAR     72  70  93 CALM      30.00S FOG
*WHARTON       CLEAR     73  68  86 CALM      30.00R
*COLUMBUS      FAIR      72  69  88 CALM      30.01R
*EAGLE LAKE    CLEAR     75  72  92 CALM      29.99R
$$

TXZ214>216-236>238-300400-
THE UPPER TEXAS COAST

CITY           SKY/WX    TMP DP  RH WIND       PRES   REMARKS
*ORANGE        CLOUDY    74  71  88 E9        30.02R
PORT ARTHUR    CLOUDY    75  68  78 E7        29.99R
GALVESTON      PTCLDY    78  70  76 NE7       29.99R
ANGLETON       CLEAR     76  71  85 NE6       29.98R
*BAY CITY      CLEAR     74  71  88 NE3       29.98R
PALACIOS       CLEAR     72  70  93 NE6       29.97R
$$

TXZ229>234-239>247-300400-
TEXAS COASTAL BEND AND RIO GRANDE PLAINS

CITY           SKY/WX    TMP DP  RH WIND       PRES   REMARKS
VICTORIA       CLEAR     74  71  91 E6        29.98R
*BEEVILLE      CLEAR     76  76 100 SE5       29.99R
ROCKPORT       CLOUDY    78  71  79 E10       29.96R
*PORT ARANSAS  CLEAR     77  69  77 E7        29.98R
*PORT LAVACA   CLEAR     75  72  91 CALM      29.98R
*INGLESIDE     CLOUDY    76  71  85 MISG      29.98R
CORPUS CHRISTI CLOUDY    73  72  96 S5        29.98R
CORPUS NAS     PTCLDY    78  72  81 E7        29.98R
*ROBSTOWN      CLOUDY    75  74  97 SE5       29.99R
ALICE          CLOUDY    73  70  90 SE6       29.98R
KINGSVILLE NAS CLOUDY    73  73 100 E7        29.97R
COTULLA        MOCLDY    83  66  56 E12       29.97R
*FAITH RANCH   PTCLDY    81  70  69 NE3       29.97R
LAREDO         MOCLDY    81  68  64 SE8       29.97R
$$

TXZ248>255-300400-
DEEP SOUTH TEXAS

CITY           SKY/WX    TMP DP  RH WIND       PRES   REMARKS
BROWNSVILLE    CLEAR     78  71  79 NE6       29.96R
PORT ISABEL    CLEAR     76  71  85 NE5       29.95R
*SOUTH PADRE   NOT AVBL
HARLINGEN      CLEAR     73  71  93 NE7       29.96R
*HEBBRONVILLE  PTCLDY    76  67  74 SE8       29.99S
MCALLEN        PTCLDY    81  70  69 E7        29.97R
*WESLACO       MOCLDY    77  70  79 E6        29.96R
FALFURRIAS     CLOUDY    75  70  84 E3        29.97R
EDINBURG       CLEAR     76  70  81 E5        29.98R
*ZAPATA        CLEAR     79  67  66 SE3       29.96R
$$

TXZ213>215-236>238-242>244-246-247-251-254-255-300400-
CMAN STATIONS

STATION/POSITION TIME  TEMP    WIND        PRES    WAVE
                       AIR SEA DIR/SP/G            HT/PER
                 (UTC) (F)     (DEG/KT/KT) (MB)    (FT/S)
SABINE PASS      0230   75 83   70/  8/  9 1017.2
SEA RIM ST PARK  0200   74      60/  5/  5 1015.8
NORTH JETTY/GLS  0230      80   80/ 12/ 13 1014.6
EAGLE POINT      0230   77 80   80/ 10/ 12 1015.3
MORGANS POINT    0230   76 81   70/  5/  6 1015.2
MISSION/ARANSAS  0200   79      90/  9     1015.0
PORT O`CONNOR    0230   79      40/ 12/ 13 1014.2
PORT ARANSAS     0200   78 80   60/ 11/ 12 1014.4
MALAQUITE BEACH  0230   78 81   60/ 10/ 12 1015.2
BAFFIN BAY       0230   78 83              1014.5
PORT ISABEL      0230   79 83  360/  1/  2 1014.5
$$

GMZ080-GMZ150>470-300400-
OFFSHORE BUOY REPORTS

STATION/POSITION TIME  TEMP    WIND        PRES    WAVE
                       AIR SEA DIR/SP/G            HT/PER
                 (UTC) (F)     (DEG/KT/KT) (MB)    (FT/S)
20 E GALVESTON   0150   78 79   50/ 12/ 12 1014.9    3/ 6
90 E PT ARANSAS  0150   76 79   20/ 17/ 21 1013.7    4/ 7
35 NE PT MANSFLD 0150   78      30/  8/ 10 1013.2    5/ 7
200 E PT ISABEL  0150   81 81  170/ 16/ 17 1013.1    6/ 8
$$




USA.gov is the U.S. government's official web portal to all federal, state and local government web resources and services.